Regional Weather Roundup
Issued by NWS Sioux Falls, SD

Home | Current Version | Previous Version | Graphics & Text | Print | Product List | Glossary Off
Versions: 1 2 3 4 5 6 7 8 9 10 11 12 13 14 15 16 17 18 19 20 21 22 23 24 25 26 27 28 29 30 31 32 33 34 35 36 37 38 39 40 41 42 43 44 45 46 47 48 49 50

000
ASUS43 KFSD 220802
RWRFSD

WEATHER ROUNDUP FOR SE SOUTH DAKOTA/SW MINNESOTA/NW IOWA
NATIONAL WEATHER SERVICE SIOUX FALLS SD
300 AM CDT TUE MAY 22 2018

NOTE: "FAIR" INDICATES FEW OR NO CLOUDS BELOW 12,000 FEET WITH NO
SIGNIFICANT WEATHER AND OR OBSTRUCTIONS TO VISIBILITY.


SDZ038>040-050-052>070-220900-
SOUTHEAST SOUTH DAKOTA

CITY           SKY/WX    TMP DP  RH WIND       PRES   REMARKS
BROOKINGS      FOG       53  52  96 SE6       30.00S VSB 1/4
CHAMBERLAIN    PTCLDY    56  56 100 E7        29.94S
HURON          CLEAR     55  53  93 SE7       29.96S FOG
MADISON        FOG       54  54 100 CALM      30.00S VSB 1/2
MITCHELL       CLEAR     55  53  93 SE6       29.96F FOG
SIOUX FALLS    CLEAR     50  50 100 NE3       29.99S FOG
WINNER         PTSUNNY   65  56  72 S10       29.92F
YANKTON        CLOUDY    57  56  96 E6        29.97F FOG
$$

MNZ071-072-080-081-089-090-097-098-220900-
SOUTHWEST MINNESOTA

CITY           SKY/WX    TMP DP  RH WIND       PRES   REMARKS
FAIRMONT       FOG       56  56 100 CALM      30.02R VSB 1/4
JACKSON        CLOUDY    55  55 100 S3        30.02S FOG
LUVERNE        FOG       52  52 100 CALM      30.01S VSB<1/4
MARSHALL       CLEAR     53  52  96 SW6       30.00S
MONTEVIDEO     CLEAR     54  54 100 S5        30.00S FOG
PIPESTONE      FOG       54  54 100 SE6       30.01R VSB 1/4
REDWOOD FALLS  FOG       55  55 100 CALM      30.00S VSB 1
TRACY          FOG       55  55 100 S6        30.00S VSB 1/2
WINDOM         HAZE      54  39  58 CALM      30.01R VSB<1/4
WORTHINGTON    FOG       56  56 100 S5        30.02S VSB 1/4
$$

IAZ001>003-012>014-020>022-031-032-NEZ013-014-SDZ071-220900-
NORTHWEST IOWA

CITY           SKY/WX    TMP DP  RH WIND       PRES   REMARKS
CHEROKEE       FOG       55  55 100 CALM      30.01S VSB 1/4
DENISON        CLOUDY    57  57 100 CALM      30.01F
ESTHERVILLE    FOG       53  53 100 CALM      30.01R VSB 1/4
ORANGE CITY    FOG       55  55 100 E5        30.00S VSB 3/4
SHELDON        FOG       55  55 100 SE6       29.99S VSB<1/4
SIOUX CITY     CLOUDY    58  55  90 E7        29.98F
SPENCER        FOG       57  55  93 SE3       30.01S VSB 1/4
STORM LAKE     FOG       55  55 100 SE5       30.01S VSB<1/4
$$

ABBREVIATIONS USED IN REMARKS
   TC - TEMPERATURE IN CELSIUS
  WCI - WIND CHILL INDEX
   HX - HEAT INDEX
  VSB - VISIBILITY





USA.gov is the U.S. government's official web portal to all federal, state and local government web resources and services.